Stündliche Wetter Dabas

Heute, 30 Oktober, Freitag

Zeit Temperatur Niederschläge Wind Luftdruck Luftfeuchtigkeit
00:00 +9°C° 0 mm 5 m/S 756 mmHg 76%
01:00 +8°C° 0 mm 5 m/S 756 mmHg 73%
02:00 +8°C° 0 mm 5 m/S 756 mmHg 73%
03:00 +7°C° 0 mm 5 m/S 756 mmHg 73%
04:00 +7°C° 0 mm 5 m/S 756 mmHg 73%
05:00 +7°C° 0 mm 5 m/S 756 mmHg 74%
06:00 +7°C° 0 mm 4 m/S 757 mmHg 75%
07:00 +7°C° 0 mm 4 m/S 757 mmHg 75%
08:00 +8°C° 0 mm 4 m/S 757 mmHg 71%
09:00 +10°C° 0 mm 4 m/S 757 mmHg 66%
10:00 +11°C° 0 mm 4 m/S 757 mmHg 62%
11:00 +11°C° 0.1 mm 4 m/S 757 mmHg 68%
12:00 +11°C° 0.1 mm 3 m/S 757 mmHg 74%
13:00 +11°C° 0.1 mm 3 m/S 757 mmHg 80%
14:00 +11°C° 0.3 mm 3 m/S 757 mmHg 83%
15:00 +10°C° 0.3 mm 3 m/S 756 mmHg 86%
16:00 +10°C° 0.3 mm 4 m/S 756 mmHg 89%
17:00 +10°C° 0.3 mm 4 m/S 756 mmHg 89%
18:00 +10°C° 0.3 mm 4 m/S 756 mmHg 90%
19:00 +10°C° 0.3 mm 4 m/S 756 mmHg 91%
20:00 +10°C° 0.2 mm 5 m/S 756 mmHg 90%
21:00 +10°C° 0.2 mm 5 m/S 756 mmHg 89%
22:00 +12°C° 0.2 mm 5 m/S 756 mmHg 88%
23:00 +11°C° 0.2 mm 6 m/S 756 mmHg 87%

Morgen, 31 Oktober, Samstag

Zeit Temperatur Niederschläge Wind Luftdruck Luftfeuchtigkeit
00:00 +11°C° 0.2 mm 6 m/S 755 mmHg 86%
01:00 +11°C° 0.2 mm 7 m/S 755 mmHg 85%
02:00 +11°C° 0.1 mm 7 m/S 755 mmHg 84%
03:00 +12°C° 0.1 mm 8 m/S 755 mmHg 83%
04:00 +12°C° 0.1 mm 8 m/S 754 mmHg 82%
05:00 +12°C° 0 mm 8 m/S 754 mmHg 82%
06:00 +12°C° 0 mm 8 m/S 754 mmHg 82%
07:00 +12°C° 0 mm 8 m/S 755 mmHg 82%
08:00 +12°C° 0 mm 8 m/S 755 mmHg 80%
09:00 +13°C° 0 mm 8 m/S 755 mmHg 78%
10:00 +13°C° 0 mm 8 m/S 755 mmHg 76%
11:00 +14°C° 0 mm 7 m/S 756 mmHg 75%
12:00 +15°C° 0 mm 6 m/S 756 mmHg 74%
13:00 +15°C° 0 mm 5 m/S 756 mmHg 73%
14:00 +14°C° 0.1 mm 5 m/S 756 mmHg 74%
15:00 +13°C° 0.1 mm 4 m/S 756 mmHg 76%
16:00 +13°C° 0.1 mm 3 m/S 756 mmHg 77%
17:00 +12°C° 0 mm 3 m/S 756 mmHg 74%
18:00 +12°C° 0 mm 3 m/S 757 mmHg 71%
19:00 +11°C° 0 mm 3 m/S 757 mmHg 68%
20:00 +12°C° 0 mm 2 m/S 757 mmHg 70%
21:00 +10°C° 0 mm 2 m/S 757 mmHg 72%
22:00 +9°C° 0 mm 2 m/S 757 mmHg 74%
23:00 +9°C° 0 mm 2 m/S 757 mmHg 75%

übermorgen, 1 November, Sonntag

Zeit Temperatur Niederschläge Wind Luftdruck Luftfeuchtigkeit
00:00 +8°C° 0 mm 2 m/S 757 mmHg 76%
01:00 +8°C° 0 mm 2 m/S 757 mmHg 77%
02:00 +8°C° 0 mm 2 m/S 757 mmHg 77%
03:00 +8°C° 0 mm 1 m/S 757 mmHg 77%
04:00 +8°C° 0 mm 1 m/S 757 mmHg 77%
05:00 +8°C° 0 mm 1 m/S 757 mmHg 77%
06:00 +8°C° 0 mm 1 m/S 757 mmHg 77%
07:00 +8°C° 0 mm 1 m/S 757 mmHg 78%
08:00 +9°C° 0 mm 1 m/S 757 mmHg 71%
09:00 +10°C° 0 mm 1 m/S 757 mmHg 65%
10:00 +12°C° 0 mm 1 m/S 758 mmHg 59%
11:00 +13°C° 0 mm 2 m/S 757 mmHg 55%
12:00 +14°C° 0 mm 2 m/S 757 mmHg 51%
13:00 +15°C° 0 mm 2 m/S 756 mmHg 47%
14:00 +14°C° 0 mm 2 m/S 756 mmHg 50%
15:00 +14°C° 0 mm 2 m/S 755 mmHg 53%
16:00 +13°C° 0 mm 2 m/S 755 mmHg 56%
17:00 +13°C° 0 mm 2 m/S 755 mmHg 57%
18:00 +12°C° 0 mm 2 m/S 755 mmHg 58%
19:00 +12°C° 0 mm 2 m/S 755 mmHg 59%
20:00 +12°C° 0.1 mm 2 m/S 755 mmHg 60%
21:00 +11°C° 0.1 mm 3 m/S 755 mmHg 62%
22:00 +11°C° 0.1 mm 3 m/S 755 mmHg 63%
23:00 +11°C° 0.2 mm 3 m/S 755 mmHg 67%

2 November, Montag

Zeit Temperatur Niederschläge Wind Luftdruck Luftfeuchtigkeit
00:00 +11°C° 0.2 mm 3 m/S 755 mmHg 72%
01:00 +11°C° 0.2 mm 3 m/S 754 mmHg 76%
02:00 +11°C° 0.4 mm 3 m/S 754 mmHg 78%
03:00 +11°C° 0.4 mm 3 m/S 754 mmHg 81%
04:00 +12°C° 0.4 mm 2 m/S 754 mmHg 83%
05:00 +12°C° 0.2 mm 2 m/S 754 mmHg 84%
06:00 +11°C° 0.2 mm 3 m/S 754 mmHg 85%
07:00 +11°C° 0.2 mm 3 m/S 754 mmHg 86%
08:00 +12°C° 0.1 mm 3 m/S 754 mmHg 86%
09:00 +13°C° 0.1 mm 2 m/S 755 mmHg 87%
10:00 +13°C° 0.1 mm 2 m/S 755 mmHg 87%
11:00 +15°C° 0 mm 2 m/S 755 mmHg 81%
12:00 +16°C° 0 mm 2 m/S 755 mmHg 75%
13:00 +18°C° 0 mm 2 m/S 755 mmHg 69%
14:00 +18°C° 0.1 mm 1 m/S 755 mmHg 73%
15:00 +16°C° 0.1 mm 1 m/S 755 mmHg 77%
16:00 +15°C° 0.1 mm 0 m/S 755 mmHg 81%
17:00 +14°C° 0 mm 0 m/S 755 mmHg 83%
18:00 +15°C° 0 mm 1 m/S 755 mmHg 84%
19:00 +15°C° 0 mm 1 m/S 755 mmHg 85%
20:00 +15°C° 0.1 mm 1 m/S 755 mmHg 86%
21:00 +15°C° 0.1 mm 1 m/S 755 mmHg 86%
22:00 +15°C° 0.1 mm 1 m/S 755 mmHg 87%
23:00 +15°C° 0 mm 1 m/S 755 mmHg 86%

3 November, Dienstag

Zeit Temperatur Niederschläge Wind Luftdruck Luftfeuchtigkeit
00:00 +15°C° 0 mm 1 m/S 755 mmHg 85%
01:00 +15°C° 0 mm 1 m/S 755 mmHg 85%
02:00 +14°C° 0 mm 1 m/S 755 mmHg 85%
03:00 +14°C° 0 mm 1 m/S 755 mmHg 84%
04:00 +14°C° 0 mm 1 m/S 754 mmHg 84%
05:00 +14°C° 0 mm 1 m/S 755 mmHg 84%
06:00 +14°C° 0 mm 1 m/S 755 mmHg 84%
07:00 +14°C° 0 mm 1 m/S 755 mmHg 84%
08:00 +14°C° 0 mm 1 m/S 755 mmHg 83%
09:00 +14°C° 0 mm 1 m/S 756 mmHg 81%
10:00 +15°C° 0 mm 1 m/S 756 mmHg 80%
11:00 +15°C° 0 mm 1 m/S 756 mmHg 79%
12:00 +15°C° 0 mm 1 m/S 756 mmHg 78%
13:00 +16°C° 0 mm 1 m/S 756 mmHg 77%
14:00 +15°C° 0 mm 1 m/S 756 mmHg 79%
15:00 +15°C° 0 mm 1 m/S 756 mmHg 82%
16:00 +15°C° 0 mm 1 m/S 756 mmHg 84%
17:00 +15°C° 0.1 mm 1 m/S 756 mmHg 86%
18:00 +14°C° 0.1 mm 1 m/S 756 mmHg 87%
19:00 +14°C° 0.1 mm 2 m/S 756 mmHg 89%
20:00 +14°C° 0 mm 2 m/S 756 mmHg 90%
21:00 +14°C° 0 mm 2 m/S 756 mmHg 90%
22:00 +14°C° 0 mm 2 m/S 756 mmHg 91%
23:00 +13°C° 0.5 mm 2 m/S 756 mmHg 92%

4 November, Mittwoch

Zeit Temperatur Niederschläge Wind Luftdruck Luftfeuchtigkeit
00:00 +12°C° 0.5 mm 3 m/S 756 mmHg 93%
01:00 +12°C° 0.5 mm 3 m/S 756 mmHg 94%
02:00 +12°C° 0.5 mm 3 m/S 756 mmHg 94%
03:00 +12°C° 0.5 mm 3 m/S 756 mmHg 94%
04:00 +12°C° 0.5 mm 3 m/S 756 mmHg 93%
05:00 +12°C° 0 mm 3 m/S 756 mmHg 93%
06:00 +12°C° 0 mm 2 m/S 756 mmHg 93%
07:00 +12°C° 0 mm 2 m/S 756 mmHg 93%
08:00 +13°C° 0 mm 2 m/S 756 mmHg 89%
09:00 +13°C° 0 mm 2 m/S 756 mmHg 84%
10:00 +14°C° 0 mm 2 m/S 757 mmHg 80%
11:00 +14°C° 0 mm 2 m/S 757 mmHg 79%
12:00 +14°C° 0 mm 2 m/S 757 mmHg 79%
13:00 +14°C° 0 mm 1 m/S 757 mmHg 79%
14:00 +14°C° 0 mm 1 m/S 757 mmHg 80%
15:00 +14°C° 0 mm 1 m/S 757 mmHg 81%
16:00 +13°C° 0 mm 1 m/S 758 mmHg 82%
17:00 +13°C° 0 mm 1 m/S 758 mmHg 83%
18:00 +13°C° 0 mm 1 m/S 758 mmHg 85%
19:00 +13°C° 0 mm 1 m/S 759 mmHg 86%
20:00 +12°C° 0 mm 1 m/S 759 mmHg 88%
21:00 +12°C° 0 mm 1 m/S 759 mmHg 89%
22:00 +11°C° 0 mm 1 m/S 760 mmHg 91%
23:00 +11°C° 0 mm 1 m/S 760 mmHg 92%
Mehr zeigen

Wir brauchen deine Erlaubnis

Meteoprog und unser Service Anbieter werden persönliche Daten aufbewahren, so wie Cookies, Geräte Bezeichnung oder ähnliche Technologien von deinem Gerät und Prozess, so wie Persönliche Daten Inhalte und Werbungen, genauso wie social Media und den Verkehr zu analysieren.

  • Aufbewahrung und/oder Zugang zu deiner Geräte Informationen.

    Cookies, Geräte Bezeichnung oder andere Informationen, können aufbewahrt oder Zugang zu deinem Gerät erhalten, für den Grund, der oben angegeben wird.

  • Personalisierte Werbung und Inhalte, Messungen, Einblick in das Publikum und Produkt Entwicklung.

    Werbungen und Inhalte können personalisiert werden, basierend auf ein Profil. Mehr Daten können besser personalisierte Werbungen und Inhalte hinzufügen. Werbung und Inhalte können gezeigt und gemessen werden. Einblicke über das Publikum, welche die Werbung gesehen haben und den Inhalt, können abgeleitet werden. So wie Daten können genutzt werden, um es zu verbessern oder die Benutzer Erfahrung zu verbessern das System und die Software.

Wenn du “Ich stimme zu” klickst, erlaubst du uns, die Cookies zu benutzen die Geräte Bezeichnung, den Web oder ähnliche Technologien zu benutzen. Deine Settings, können in deinem Gerät bei deinem Browser geändert werden.

Für den bestimmten Zweck, berechtigten Interessen beruhen darauf, mehr als auf den Inhalt. Du kannst mehr darüber in unseren Privaten und Cookie Politik lesen.